Wind_Speed
34 35 38 43 45 45 44 42 44 43 38 38 34 25 25 25 25 26 29 29 26 27 31 31 30 29 26 24 22 22 23 24 24 24 25 25 24 24 24 22 21 20 16 16 19 20 21 21 22 22 22 23 23 24 25 25 24 23 22 20 19 18 19 19 18 17 16 15 14 14 14 15 16 17 16 16 16 16 16 16 16 17 18 18 18 18
34 39 43 43 42 41 42 40 38 38 37 35 31 24 23 25 26 23 25 30 29 27 29 30 32 32 28 25 26 26 24 23 23 24 25 25 24 24 24 22 21 18 17 19 21 21 21 22 22 23 23 23 23 24 25 25 24 23 23 21 20 20 20 19 18 18 17 16 16 16 17 18 18 18 18 17 18 18 17 17 18 19 19 19 19 19
36 42 45 42 40 39 40 40 38 36 37 35 29 22 22 24 25 22 23 28 31 30 28 29 34 36 31 28 28 28 27 23 22 24 23 22 23 22 22 21 20 19 20 21 20 20 22 22 22 23 22 22 22 23 24 24 24 24 23 22 21 21 21 20 19 19 18 18 19 19 20 20 20 20 19 19 19 18 18 19 20 21 21 21 21 21
38 41 42 41 40 41 41 40 39 37 38 40 33 24 23 24 23 23 24 26 29 31 29 28 31 34 32 32 33 31 29 26 24 25 24 22 22 21 21 21 20 21 21 20 20 20 22 22 23 22 21 21 22 22 22 22 23 23 23 23 22 22 21 21 20 20 20 21 22 22 22 22 21 20 19 19 18 18 20 21 22 22 21 21 22 22
39 38 39 41 40 40 41 41 40 39 41 45 39 30 26 24 22 23 23 23 27 29 31 29 28 34 36 35 37 34 31 31 28 27 26 25 24 23 23 23 23 23 23 21 21 22 23 23 23 22 21 22 23 22 21 21 21 21 22 22 23 23 23 22 22 22 22 23 24 23 23 22 21 20 19 18 19 20 22 23 22 22 21 22 22 22
40 38 36 38 38 39 40 42 43 41 42 46 45 37 28 23 22 22 22 22 25 28 33 31 21 26 36 38 37 35 34 34 32 30 30 27 27 26 25 24 24 23 23 23 23 24 24 24 23 23 23 24 23 22 21 21 22 21 22 23 24 24 24 24 23 23 24 24 24 24 23 22 21 20 20 20 21 23 24 23 22 22 22 22 23 23
38 39 36 34 35 38 38 40 43 43 43 46 49 41 28 24 22 20 22 23 23 26 31 33 23 19 28 36 36 35 35 36 35 34 33 31 30 29 27 25 24 24 24 24 24 25 25 25 25 25 25 24 23 23 22 23 23 23 23 24 24 24 24 24 24 24 25 25 25 24 23 23 23 22 21 22 23 25 25 23 23 22 22 23 23 23
35 38 38 35 33 36 41 43 45 45 45 46 49 40 26 24 23 20 22 22 24 24 23 31 32 24 28 36 34 33 35 36 38 37 35 33 31 30 28 26 25 25 25 25 25 26 26 25 25 24 24 24 24 24 25 25 25 24 24 24 25 25 25 25 25 26 26 25 25 25 24 24 24 23 23 24 25 25 25 23 23 22 23 24 24 23
29 34 38 39 36 37 43 46 45 45 46 44 41 36 26 21 21 21 21 21 24 23 22 30 32 21 26 39 36 32 34 35 37 37 34 32 30 29 28 27 26 26 26 27 26 26 27 26 26 24 24 25 25 26 27 27 26 26 25 25 26 26 26 26 26 26 26 26 26 26 26 26 25 24 24 26 26 25 24 24 23 23 24 25 24 24
22 26 30 35 40 41 42 42 42 44 46 42 34 31 23 16 19 22 21 24 24 20 25 33 32 19 18 34 39 34 35 35 33 33 32 31 30 30 29 27 27 27 27 28 27 27 27 27 28 27 26 26 27 27 28 27 27 27 26 26 27 26 26 27 27 27 27 27 27 27 27 26 25 25 26 26 26 25 25 24 24 25 26 25 24 24
19 21 23 29 37 42 41 37 38 42 43 36 29 23 17 15 20 23 24 26 18 15 29 37 36 25 14 25 38 39 38 34 30 29 30 30 29 29 30 29 29 29 29 29 29 29 28 29 29 29 28 28 28 28 28 28 27 27 27 27 27 27 27 27 27 27 27 28 28 27 27 26 26 26 26 27 26 25 25 24 25 26 26 25 24 24
18 21 23 27 32 35 38 36 35 40 40 32 24 16 11 12 16 18 19 21 11 10 27 36 33 28 21 23 30 33 35 32 29 29 27 26 26 26 28 30 30 30 30 31 31 30 29 29 30 30 30 29 28 28 27 27 27 27 27 27 27 27 27 28 28 28 28 28 27 26 26 26 26 27 26 26 26 25 25 26 27 27 26 25 24 23
16 20 21 22 25 29 34 34 34 39 40 32 24 18 12 7 6 8 8 10 11 9 16 25 26 26 30 33 27 25 29 29 29 30 28 26 25 24 26 28 30 32 32 32 32 31 30 30 31 31 31 30 29 28 28 28 28 28 28 28 28 28 28 28 28 28 28 27 26 26 26 26 26 27 27 26 26 26 27 27 27 27 26 25 23 21
12 14 20 22 23 28 34 36 38 44 43 36 31 28 20 9 5 7 5 3 9 10 9 15 18 19 27 33 31 30 31 28 26 27 28 28 27 26 25 26 29 32 33 33 32 32 32 32 32 32 32 32 31 30 30 30 30 29 29 29 28 28 28 29 29 29 28 28 27 26 26 26 27 27 27 27 27 27 28 28 28 26 24 22 20 18
17 11 20 27 25 26 33 36 39 46 45 38 33 28 24 16 6 5 5 4 5 3 6 12 11 10 12 19 27 31 32 32 28 25 26 26 26 28 28 26 27 29 31 33 33 33 33 33 33 33 33 33 32 32 32 32 31 31 31 30 30 29 29 30 30 30 30 29 28 27 27 28 28 29 29 29 28 28 28 28 26 24 22 20 18 17
23 11 14 24 25 23 28 34 37 40 37 34 31 26 29 28 16 7 6 9 6 3 5 13 13 11 6 7 15 21 26 32 32 30 30 27 25 26 27 28 28 29 29 31 32 33 33 34 34 33 33 33 33 33 33 33 32 32 32 31 31 30 30 30 31 31 31 30 30 29 29 30 30 31 31 30 29 29 27 25 23 21 19 18 17 16
24 12 9 18 22 20 24 32 39 40 31 28 31 31 33 32 23 14 7 8 7 2 6 14 19 21 13 8 11 14 17 23 27 30 30 29 28 26 25 26 28 29 29 30 31 32 33 33 33 33 32 32 32 33 33 33 33 32 33 32 32 32 31 31 31 31 31 31 31 31 31 32 33 32 31 30 29 26 24 22 20 19 18 17 16 16
24 13 9 19 23 21 26 29 35 39 30 25 32 34 29 24 24 20 7 3 4 3 6 13 19 22 18 12 13 16 17 17 20 24 26 28 29 27 25 25 26 27 28 28 29 30 31 31 31 31 31 31 31 31 31 31 31 32 32 32 32 33 32 32 32 32 31 31 32 32 33 34 34 33 31 29 26 24 22 20 19 19 18 17 17 16
24 14 8 21 26 24 28 28 28 34 31 25 30 32 25 19 23 24 12 2 3 3 3 8 14 19 22 18 12 15 18 16 16 18 21 22 24 25 26 27 28 28 28 28 27 27 28 29 29 29 30 30 30 30 29 29 29 30 30 31 31 32 32 33 33 32 32 32 32 33 34 34 33 31 28 25 23 22 20 19 19 19 18 17 17 17
24 16 9 21 31 27 27 30 31 33 34 29 25 27 28 23 20 23 20 11 6 4 2 3 5 12 23 23 15 13 16 16 17 19 20 20 19 21 24 26 28 29 29 28 27 27 28 28 29 29 29 29 29 29 29 30 30 29 29 29 29 30 30 31 31 31 31 31 32 32 32 31 29 27 25 23 21 20 19 20 19 19 18 17 17 18
26 22 14 21 32 31 29 33 35 33 35 36 29 27 32 32 22 17 21 22 13 5 3 3 3 9 17 19 17 15 14 15 17 20 21 22 22 21 21 23 25 26 27 28 29 30 30 30 31 31 31 31 30 30 29 30 30 29 29 29 28 29 29 29 29 29 30 30 31 30 29 27 25 24 22 21 20 20 20 20 19 19 18 18 18 19
27 25 20 23 33 37 33 33 33 31 32 36 34 31 31 34 29 14 12 20 20 11 5 3 3 7 9 11 14 14 15 18 19 19 22 23 23 24 25 25 26 26 27 28 28 29 29 30 30 31 32 32 31 30 29 29 29 29 29 29 29 29 28 28 28 28 29 29 29 28 26 24 23 21 21 20 20 20 20 20 19 19 19 19 20 20
28 25 23 24 33 38 34 31 32 32 32 31 32 33 30 31 34 25 13 14 17 14 9 3 3 6 6 7 10 11 15 20 20 21 22 21 21 23 24 25 26 26 27 27 28 29 28 29 29 29 30 30 29 29 28 28 27 28 29 29 29 28 28 28 28 28 28 28 27 25 23 22 21 20 20 20 21 21 21 20 20 20 21 21 21 21
30 27 24 21 25 34 34 32 33 33 34 33 33 35 34 32 34 33 25 18 15 14 12 5 5 11 11 9 8 9 12 16 17 20 22 22 22 22 22 23 23 23 24 24 25 26 27 28 28 27 28 27 27 27 27 27 27 27 28 28 28 27 27 27 27 27 26 25 24 22 20 20 20 20 21 21 21 21 21 21 21 22 22 22 22 22
31 27 26 16 9 17 24 25 31 37 39 39 36 34 35 36 34 33 30 24 18 19 19 11 9 16 19 17 15 14 16 17 17 19 21 22 21 20 19 20 20 21 21 21 21 22 23 23 23 24 24 25 26 26 26 26 26 27 27 26 26 25 25 25 24 24 23 21 20 19 19 20 20 21 21 21 21 22 22 22 22 22 23 23 23 24
33 30 33 25 13 13 18 19 29 40 41 38 37 34 33 34 34 33 30 23 18 21 25 21 17 18 19 21 20 18 18 20 20 18 18 18 15 13 12 13 15 17 17 18 19 19 20 20 20 20 20 22 23 24 25 25 25 25 25 24 24 23 22 22 21 20 20 19 19 19 19 20 21 21 21 21 22 22 23 23 23 23 24 24 25 25
35 32 36 39 34 31 30 27 29 35 39 40 40 37 34 33 34 33 28 25 24 22 24 28 26 20 18 19 18 17 18 20 20 18 16 14 12 10 11 12 13 14 15 16 17 17 18 19 19 20 20 21 22 23 24 24 23 23 22 21 21 20 19 19 18 18 18 19 19 20 20 21 21 21 22 22 23 24 24 25 25 25 25 26 26 27
38 37 37 40 40 37 34 29 28 30 38 45 44 40 38 35 35 36 35 36 33 24 24 32 30 24 22 21 18 18 18 18 18 16 14 13 14 12 12 13 13 12 13 14 14 15 16 18 19 21 21 22 22 23 23 23 22 22 21 20 19 18 18 18 18 18 19 19 20 20 20 21 22 23 23 24 25 25 26 26 26 27 27 28 29 29
41 41 40 38 36 37 34 31 30 28 31 39 44 44 43 39 37 40 43 44 41 34 35 38 35 32 30 25 22 22 21 20 20 20 20 19 17 15 14 14 14 13 13 13 14 14 15 16 18 20 21 22 21 21 21 21 22 21 20 19 19 18 18 18 19 19 19 20 20 21 22 22 23 24 25 25 26 27 27 28 28 29 30 30 31 31
42 39 39 37 35 34 34 33 33 31 28 31 38 42 46 45 43 44 45 44 44 45 45 41 39 42 38 30 27 27 27 28 28 27 26 25 23 21 19 18 18 16 15 15 16 16 16 17 17 18 20 21 21 20 21 21 22 21 20 20 20 20 20 20 20 20 20 21 22 22 23 24 25 25 26 27 27 28 29 30 31 31 32 32 32 32
43 33 29 35 33 30 33 34 32 33 32 31 33 36 41 47 50 50 49 45 43 46 46 42 44 48 42 33 30 30 31 32 31 29 28 26 25 24 22 21 21 19 17 17 18 19 18 17 17 17 18 20 21 21 22 22 23 23 22 22 22 21 21 20 21 21 22 23 24 24 25 26 26 27 28 29 29 30 31 31 32 32 33 33 33 33
44 30 22 26 29 28 32 31 30 33 33 33 39 40 40 44 48 49 49 47 47 48 44 44 50 51 42 34 32 33 34 34 32 30 29 27 26 25 24 23 23 22 19 19 20 21 19 18 18 17 17 19 22 23 24 24 25 25 24 23 22 22 22 23 23 24 24 25 26 27 27 28 29 30 30 31 31 31 32 33 33 33 34 34 34 34
44 37 25 22 25 27 28 29 32 28 21 30 46 48 42 43 44 44 46 47 47 48 47 49 54 49 39 34 34 34 34 34 33 31 31 30 28 27 27 28 27 25 22 21 23 23 21 20 19 18 18 20 22 23 24 24 25 25 24 24 24 25 25 26 26 27 27 28 29 30 30 31 32 32 33 33 33 33 34 34 34 34 35 35 35 35
46 43 33 25 24 23 24 28 25 15 14 31 44 42 38 40 41 42 45 43 41 43 46 49 49 44 39 37 38 37 35 33 32 30 29 27 27 28 29 29 27 25 24 25 26 24 22 21 20 19 19 20 22 24 24 24 25 25 26 27 28 28 28 29 29 29 30 31 32 33 33 34 34 34 35 35 35 35 35 35 35 36 36 36 36 36
48 46 39 32 27 22 23 22 13 10 25 36 34 31 32 34 37 40 41 40 39 40 43 44 42 39 36 34 35 35 34 33 31 28 25 24 25 27 27 27 27 25 24 25 25 24 22 21 21 20 20 19 20 23 24 25 25 26 27 29 30 30 31 31 32 32 33 34 35 36 36 36 36 37 37 37 37 36 36 36 36 37 37 38 37 36
45 46 42 35 28 22 20 21 16 21 32 33 28 31 35 33 33 37 39 42 43 41 43 44 42 39 36 35 35 35 35 33 30 26 24 24 26 26 27 28 27 24 22 22 23 22 20 20 20 21 20 20 20 21 23 24 25 27 28 29 30 31 32 33 34 35 36 37 38 38 38 39 39 39 39 39 38 38 37 37 37 38 38 39 38 37
42 43 42 34 26 21 20 24 29 30 30 33 36 38 38 36 34 33 37 42 42 41 44 44 40 38 36 35 35 34 33 32 30 28 27 27 27 27 28 28 25 23 22 23 23 23 22 22 23 23 24 24 24 24 24 25 26 28 29 30 31 32 33 35 36 37 38 39 39 40 41 41 41 41 41 40 40 39 39 38 38 38 39 39 38 38
41 40 40 34 27 23 19 18 19 19 25 36 40 35 34 34 31 28 32 40 41 39 41 42 40 37 35 33 32 31 29 30 33 35 33 28 27 28 28 27 25 25 26 26 26 27 26 26 27 27 27 28 28 28 28 28 29 30 31 32 33 34 36 37 38 39 40 40 41 42 42 43 43 43 42 42 41 41 40 40 39 39 39 39 39 38
42 38 38 36 31 30 27 18 14 18 27 33 32 30 28 27 26 23 27 40 46 40 37 41 41 39 38 36 33 30 29 33 40 42 36 29 28 30 30 28 28 29 30 30 30 30 30 29 29 30 30 31 31 31 32 32 32 33 34 35 36 37 38 39 39 40 41 42 43 44 44 45 45 45 44 43 43 42 41 41 40 40 40 39 39 38
44 40 39 40 39 38 35 27 25 32 34 28 23 23 23 22 21 17 17 30 37 30 29 35 37 37 39 37 35 36 38 42 44 42 36 31 30 32 32 31 31 32 32 32 32 32 32 32 32 32 32 32 33 33 34 34 35 36 36 37 38 39 40 40 40 41 42 43 44 45 46 46 46 46 45 44 44 43 42 42 41 41 40 39 39 39
43 43 40 41 42 39 36 32 32 37 37 29 21 19 18 16 18 23 27 28 24 20 20 23 24 28 31 33 36 39 40 40 40 37 34 32 32 33 34 34 34 34 34 34 33 33 33 33 34 34 34 34 35 36 36 36 37 37 37 38 38 39 39 39 40 41 43 44 45 46 47 46 46 46 46 45 45 44 43 42 41 41 40 40 40 39
43 42 39 41 39 37 37 34 29 33 41 36 23 16 17 20 25 36 41 35 29 28 26 23 22 22 20 22 27 29 30 31 31 30 29 29 30 32 34 35 36 37 37 37 36 35 35 35 35 36 36 37 38 38 38 38 38 37 37 37 37 37 37 37 38 40 41 43 44 45 45 46 46 46 46 46 45 44 43 42 41 41 40 40 40 39
47 41 38 42 40 34 31 26 19 27 39 38 26 23 27 32 37 41 39 34 33 31 26 23 22 18 14 16 18 19 20 23 23 22 21 21 23 25 26 28 30 32 33 34 34 34 35 36 36 37 37 38 38 38 38 38 39 38 38 38 37 36 36 36 37 37 39 40 41 42 43 44 45 46 46 46 45 44 43 42 41 41 40 40 40 40
49 45 42 47 46 37 32 32 34 38 39 33 29 30 32 33 34 32 29 28 28 26 23 21 20 18 17 18 18 19 21 21 21 21 20 19 19 19 20 21 21 22 23 24 25 26 27 29 30 32 33 34 35 36 37 38 38 39 39 39 38 38 38 37 37 38 38 38 39 40 41 42 44 45 45 45 44 43 43 42 41 41 40 40 41 40
50 51 49 50 50 46 43 46 50 50 45 37 32 30 25 21 19 19 20 20 19 20 21 20 18 18 19 18 18 19 20 19 19 19 18 18 18 18 18 19 19 20 20 21 21 22 22 23 24 25 27 28 29 31 32 33 35 36 36 37 37 38 38 38 38 38 38 38 38 39 40 41 42 44 44 44 43 43 42 41 41 41 41 41 41 40
48 50 49 47 47 47 49 49 48 49 49 46 39 33 28 25 21 19 19 18 17 18 18 18 17 18 18 18 19 19 18 19 19 18 18 18 18 17 17 17 17 19 20 21 22 23 23 23 24 24 24 25 25 27 28 29 30 31 32 33 33 35 36 36 37 37 37 38 38 39 39 40 41 42 43 42 42 42 41 41 41 41 41 41 40 41
45 45 46 46 44 44 47 48 46 46 47 45 42 38 35 32 29 26 24 24 22 21 21 21 21 20 21 23 23 22 22 22 21 21 21 20 19 18 17 16 17 18 19 20 22 24 25 26 26 27 27 28 28 29 30 31 32 32 32 33 33 34 35 36 37 37 37 38 38 38 38 39 40 41 41 41 41 41 41 41 41 41 41 41 40 40
43 42 44 46 47 46 46 45 44 44 44 44 43 39 36 34 32 29 27 26 26 26 26 26 25 25 25 25 24 24 24 23 22 23 23 21 20 19 18 18 19 20 21 23 24 26 27 28 29 31 32 32 32 33 34 35 35 35 34 34 34 35 36 36 37 38 37 37 37 37 38 38 39 40 40 40 40 40 41 41 41 41 41 40 40 39
41 41 42 45 47 49 49 48 45 42 42 43 42 40 37 35 32 29 28 27 27 27 27 27 27 27 26 25 25 24 24 23 23 23 23 23 23 22 21 22 23 24 26 27 27 27 26 26 27 28 29 30 31 32 32 33 33 33 33 33 33 33 34 35 36 36 37 37 37 37 37 38 38 38 38 39 39 39 40 40 40 40 40 39 39 38
41 42 42 43 46 49 49 47 43 39 36 36 35 34 33 32 30 29 28 27 27 27 27 27 27 27 26 25 25 24 24 24 24 24 25 25 25 25 26 26 27 29 30 30 28 26 24 24 24 25 26 28 29 30 30 31 30 31 31 31 31 31 31 32 33 33 35 36 36 36 36 36 36 36 37 37 38 39 39 40 40 40 39 39 38 38
43 43 42 42 44 45 43 39 37 35 33 31 30 29 29 28 27 26 26 25 25 26 26 26 27 26 26 26 25 26 26 26 27 27 28 28 28 29 30 30 31 32 32 30 28 26 25 25 26 27 28 30 30 30 30 29 29 29 29 29 29 29 30 30 31 32 33 34 35 34 34 34 34 35 35 36 37 38 39 39 39 39 39 39 39 39
Wind_Direction
212 213 218 220 219 218 217 216 218 221 219 212 208 213 224 230 234 228 222 221 225 233 232 228 232 230 222 221 226 233 235 235 232 226 224 223 221 221 222 222 222 222 218 217 222 222 222 222 221 221 222 222 223 222 222 224 227 230 232 231 226 225 224 223 222 223 224 224 226 227 228 230 234 239 243 247 251 254 257 261 265 266 267 270 273 276
215 218 226 229 225 221 220 220 222 224 219 210 207 214 223 224 228 228 223 223 226 235 236 230 233 234 228 224 226 232 235 234 232 227 227 227 224 223 223 222 221 219 213 216 220 221 222 221 221 221 222 223 223 223 224 224 225 228 231 232 229 226 225 224 224 223 224 225 227 228 228 230 234 240 244 247 251 254 259 263 265 267 268 271 273 276
216 223 229 231 229 224 222 224 227 227 220 209 205 218 225 218 219 224 223 224 227 234 237 233 235 236 233 230 229 231 233 231 230 230 230 230 230 229 227 224 222 218 215 217 219 222 225 224 224 224 224 226 226 226 226 224 224 225 227 229 229 228 226 225 226 225 226 227 228 229 229 231 233 237 242 246 250 254 258 260 262 265 268 271 274 276
216 224 227 227 228 227 225 225 227 226 219 210 207 218 225 215 214 220 222 225 227 232 235 236 240 239 235 233 232 229 230 228 227 231 231 229 229 228 226 225 222 219 217 219 220 223 228 229 229 228 227 229 228 228 227 225 224 223 224 226 227 228 228 227 227 227 229 230 231 231 232 234 236 239 242 246 250 253 254 255 258 262 266 270 274 276
220 222 225 225 224 225 226 225 224 222 218 212 208 213 219 211 212 219 223 230 231 231 234 235 244 243 235 233 234 229 229 230 227 230 231 227 225 224 223 224 221 220 219 219 219 221 228 230 232 233 231 232 231 230 229 227 226 225 224 226 227 228 228 228 227 227 229 231 233 235 236 239 241 243 244 246 248 249 251 254 256 260 264 269 272 274
221 223 224 224 222 222 225 224 222 221 219 215 210 210 212 210 214 218 223 234 233 230 230 228 239 246 236 233 234 230 229 232 230 231 232 229 229 229 227 227 226 226 224 222 219 219 224 226 228 230 230 232 232 232 231 230 228 225 224 225 226 227 228 228 228 228 230 232 235 238 239 241 243 243 243 244 246 248 251 254 257 260 265 269 272 273
220 224 225 226 224 222 223 224 223 221 218 217 214 208 206 214 220 220 223 234 234 229 229 225 229 247 243 236 234 232 231 233 234 234 234 233 234 235 232 230 230 231 230 227 224 223 224 224 225 226 227 230 231 232 233 233 231 228 225 226 227 228 229 229 229 230 232 234 237 240 241 242 243 242 243 244 247 250 253 256 258 262 268 272 274 276
219 222 225 226 225 224 224 223 223 220 216 219 216 206 205 220 223 223 226 234 239 238 234 229 229 241 248 240 235 234 234 234 235 236 236 234 234 235 234 231 231 232 233 231 229 228 227 227 227 227 228 229 229 230 232 233 232 231 229 229 229 230 231 231 232 233 234 236 238 240 241 242 243 244 245 247 249 252 256 258 260 265 271 274 276 279
221 223 226 226 224 225 227 224 221 218 217 221 216 203 210 233 237 236 235 240 245 243 240 234 227 231 248 243 236 237 237 234 235 235 236 235 233 234 234 233 232 231 233 233 231 230 230 229 229 229 229 229 229 229 230 231 232 232 232 231 231 231 232 233 234 235 236 238 239 240 241 242 244 245 247 250 252 256 258 260 262 266 271 274 277 279
234 231 233 231 228 229 230 226 223 219 219 221 213 206 219 247 251 247 247 247 243 238 239 236 227 222 249 245 236 235 236 234 234 235 237 238 235 234 235 236 236 233 233 233 233 231 231 230 230 230 228 228 229 229 230 231 232 233 234 235 235 235 235 235 235 236 237 239 240 241 243 244 246 247 249 252 254 257 258 260 262 266 269 273 276 276
239 236 234 231 230 231 231 229 225 221 219 214 206 211 233 254 254 254 252 245 235 233 239 238 233 228 245 250 240 236 236 235 235 235 236 239 239 238 238 239 238 236 233 233 234 233 231 231 232 232 231 230 230 231 231 232 234 236 237 239 240 239 239 238 238 238 239 240 241 243 245 246 248 249 251 253 256 257 259 261 262 265 269 272 272 271
231 233 228 227 228 228 228 228 225 220 210 200 196 204 232 249 251 255 246 230 220 238 238 236 234 227 229 244 243 240 240 236 234 233 232 236 238 238 238 239 237 235 233 232 234 235 233 232 233 234 235 234 234 235 235 236 237 237 239 240 241 241 241 241 241 241 241 242 243 244 246 247 249 251 253 255 257 259 260 261 263 266 269 269 267 266
219 228 230 232 229 225 223 220 218 213 201 195 193 191 203 214 218 232 226 214 223 238 234 228 225 224 232 239 238 238 240 238 236 234 232 234 235 234 233 234 234 232 232 231 233 235 234 233 233 234 236 237 238 239 240 240 240 240 240 240 241 241 242 242 242 242 242 243 244 245 246 248 250 252 254 256 258 259 260 262 264 266 265 263 261 259
203 223 230 231 227 223 218 213 209 201 193 196 196 189 194 185 152 206 207 225 239 236 224 213 213 229 242 244 240 237 240 243 243 239 236 236 236 234 231 231 232 231 230 231 233 234 234 234 234 234 235 236 238 240 241 241 241 242 242 242 242 242 242 242 243 243 243 244 245 247 249 250 251 253 254 255 256 258 260 262 263 262 259 257 254 249
186 206 225 221 220 219 215 216 210 196 192 200 199 195 206 205 184 207 209 225 230 206 187 184 196 234 241 243 246 243 240 242 242 240 239 238 236 235 234 232 232 231 231 231 232 233 234 234 234 234 234 235 237 239 240 241 242 243 243 244 244 243 243 243 244 245 245 246 247 250 252 253 253 253 253 255 256 258 260 260 259 255 252 249 244 239
192 203 223 212 216 221 215 213 206 194 195 204 200 204 216 212 213 233 233 231 215 124 178 190 208 238 233 230 243 243 241 239 240 242 241 239 238 236 235 234 233 233 232 232 231 231 232 233 234 235 235 236 237 238 240 242 243 244 244 245 245 245 244 244 245 245 246 247 249 251 253 253 253 253 254 255 257 257 257 255 251 248 244 240 236 238
194 214 232 204 205 216 213 207 199 193 196 202 203 210 213 210 221 240 238 221 210 207 220 209 222 237 241 235 225 227 236 235 237 241 239 238 239 236 235 235 235 234 234 234 234 233 233 234 235 236 237 237 238 239 240 242 243 244 245 245 246 246 246 246 247 247 248 249 250 251 253 253 253 254 255 255 254 253 250 246 243 238 235 233 236 242
194 200 223 204 196 199 201 198 198 197 196 201 208 211 212 216 232 240 237 181 192 242 235 215 224 233 231 230 226 224 230 231 231 234 235 236 238 237 236 235 235 236 234 233 234 235 236 237 238 239 239 240 241 240 241 242 243 244 245 245 246 246 247 247 248 248 248 249 249 250 251 252 253 253 253 252 249 246 243 237 233 229 229 234 241 249
199 184 198 203 193 188 190 191 197 201 202 209 213 209 206 215 227 228 228 208 192 238 271 228 228 230 224 221 221 221 227 231 228 229 233 235 236 236 236 236 237 237 236 236 237 237 239 240 241 241 242 243 244 244 244 243 244 245 245 246 246 246 247 247 247 248 247 246 247 248 249 250 250 249 247 246 243 239 235 229 226 227 231 239 247 255
207 192 183 195 191 185 188 194 199 202 203 208 215 212 210 215 222 224 227 231 215 212 265 245 228 235 231 227 223 222 230 234 231 232 235 234 235 234 234 237 239 239 239 239 238 238 238 238 239 239 240 242 244 245 245 245 245 245 246 246 246 246 246 246 246 246 245 244 244 245 246 246 245 243 241 238 234 229 226 224 226 231 237 245 252 259
211 205 193 188 190 193 197 201 203 203 202 204 208 208 210 215 220 227 231 231 229 215 190 196 240 249 241 236 233 228 227 230 231 232 234 233 233 232 231 233 234 235 236 235 235 236 236 237 238 239 241 242 244 246 246 246 246 246 246 245 244 244 243 242 242 243 242 242 242 242 242 241 240 238 235 231 226 223 224 226 231 236 243 250 257 263
208 206 197 187 190 199 206 206 207 207 205 207 210 208 208 213 217 226 237 227 227 232 211 178 240 254 245 241 240 231 224 228 231 230 230 230 230 229 228 228 228 229 230 230 233 234 236 239 240 240 241 241 242 243 244 245 245 246 245 244 243 241 240 239 238 238 238 239 240 239 238 236 234 230 226 223 222 223 227 231 236 242 248 254 260 266
207 205 201 196 197 203 207 210 210 210 209 211 215 216 215 216 217 220 227 224 224 233 237 237 268 255 237 224 223 219 219 226 231 230 228 227 227 227 228 229 230 231 233 235 237 238 240 241 240 239 238 238 239 239 240 241 241 242 243 242 241 239 237 235 234 234 234 235 236 235 232 230 226 222 221 221 224 227 231 236 242 247 252 258 264 270
206 205 199 194 200 205 209 215 216 213 212 212 214 217 218 220 221 222 229 238 234 228 226 231 255 239 225 210 208 217 231 236 234 231 230 231 232 234 235 235 235 235 235 237 239 239 241 241 240 239 237 237 238 237 238 238 238 238 239 238 237 235 233 233 232 232 232 231 230 228 225 223 221 221 222 225 229 232 237 242 246 251 256 262 268 275
198 202 196 177 174 206 212 220 221 217 215 216 216 215 216 220 223 225 231 239 243 239 231 224 240 239 233 236 239 243 251 252 245 238 235 234 234 235 238 239 239 237 236 235 235 236 237 238 239 239 238 237 236 236 235 235 234 234 234 233 232 231 230 229 228 227 227 225 223 221 220 220 221 224 227 230 234 238 242 246 251 256 262 267 273 278
196 199 199 189 173 193 204 214 218 215 214 218 220 219 218 221 223 227 232 234 236 240 233 229 240 244 240 243 243 237 240 244 244 238 226 216 217 225 233 239 239 238 237 234 233 234 233 234 235 235 235 233 231 230 230 229 229 229 228 228 226 225 224 223 222 222 221 220 219 219 221 223 226 230 233 236 239 243 246 251 257 262 268 273 277 280
202 203 207 206 203 204 205 211 218 216 214 217 219 219 218 221 224 229 235 235 234 239 239 237 242 243 236 234 231 225 229 233 229 216 203 207 227 242 245 248 245 242 242 240 238 237 235 234 232 231 231 229 228 227 225 224 224 224 222 220 219 218 218 218 220 221 221 221 221 223 226 229 232 235 238 241 244 248 252 257 263 268 273 277 280 283
207 208 213 215 215 216 216 218 224 221 218 219 220 219 218 218 223 229 233 234 234 239 242 240 240 241 237 231 225 223 226 226 222 218 227 249 260 258 250 246 243 243 245 245 243 241 238 235 232 229 227 227 228 227 225 223 219 215 213 212 214 217 219 220 222 223 224 225 227 230 233 235 238 240 243 246 249 253 258 263 269 273 277 281 283 284
211 213 216 215 218 224 226 229 233 232 228 225 224 224 222 221 223 227 231 233 234 236 240 240 241 243 241 237 234 234 234 237 243 250 260 267 265 260 256 248 243 247 250 248 244 241 237 236 234 230 227 227 228 229 227 223 218 214 213 214 216 220 222 224 226 227 229 232 234 237 239 241 243 246 249 252 256 261 266 270 274 277 280 282 283 283
213 216 218 217 219 223 226 232 238 241 242 236 230 230 228 225 226 227 230 232 236 241 244 245 248 248 245 242 241 244 248 250 252 254 258 262 265 264 260 251 250 257 259 253 250 248 245 242 238 233 230 228 226 227 226 223 220 219 220 222 224 225 226 228 230 232 235 238 240 242 244 246 249 251 254 258 262 266 270 273 276 278 279 281 282 283
212 215 218 218 219 223 226 230 236 240 244 244 242 239 233 229 228 229 231 232 237 244 247 249 252 251 247 243 243 247 253 255 256 257 258 261 262 259 254 251 255 262 261 253 249 251 252 248 244 240 236 231 226 224 224 224 224 225 226 227 228 229 231 233 235 238 240 241 243 246 248 251 253 255 258 262 265 268 271 274 275 277 278 280 280 282
209 210 213 214 215 222 226 228 233 238 241 243 243 241 236 231 229 230 233 234 235 241 245 247 249 248 245 244 246 250 255 258 260 261 260 258 255 252 252 255 260 264 259 249 246 249 251 248 244 242 239 234 228 223 222 224 227 229 231 233 234 235 236 238 239 241 243 244 246 248 251 253 255 257 260 263 266 270 272 274 275 276 277 278 279 280
209 210 209 206 211 220 225 228 232 234 237 242 242 240 238 236 235 233 234 235 235 239 242 244 246 247 248 249 249 250 253 257 259 261 263 262 259 257 258 260 262 261 253 244 242 245 247 247 244 242 237 234 230 226 224 226 230 232 235 237 238 239 240 241 242 244 245 247 248 250 252 253 256 258 261 264 267 270 272 274 275 276 277 278 278 279
208 212 212 209 212 219 220 222 225 221 230 244 245 242 239 239 239 238 236 236 237 239 242 245 248 250 250 247 247 250 252 256 260 264 266 264 259 257 257 258 258 256 249 243 241 242 245 248 248 246 242 237 232 228 226 227 230 232 235 237 239 241 242 244 245 247 248 249 250 251 252 254 256 259 261 264 267 269 272 274 276 277 277 277 278 279
206 209 212 213 214 216 211 205 199 216 233 242 248 247 242 241 242 244 246 245 245 245 247 249 250 251 250 247 249 253 256 258 260 262 260 255 252 252 254 256 256 253 247 243 242 243 246 248 250 250 249 247 240 234 230 229 229 231 234 237 240 242 244 245 247 248 249 250 251 253 254 256 258 260 262 265 267 269 271 273 275 277 277 277 278 278
208 206 208 209 208 208 194 185 199 233 238 242 249 247 243 239 238 242 246 247 245 246 248 249 250 251 251 251 251 253 256 256 256 255 252 248 247 249 252 253 251 249 246 244 243 244 245 247 249 249 250 250 246 242 238 234 232 232 234 237 240 243 245 247 249 250 250 252 253 254 256 258 259 261 263 265 267 268 270 272 274 276 277 278 278 278
213 208 207 205 206 206 193 198 221 241 249 249 246 245 245 243 241 243 248 250 247 244 245 248 250 251 250 250 251 253 257 260 259 254 248 244 244 245 247 247 247 248 249 248 248 249 249 250 250 249 249 249 248 247 245 241 238 237 237 238 240 243 245 247 249 251 253 254 255 256 258 259 260 261 263 265 267 268 270 271 273 276 277 277 277 277
213 212 212 209 208 210 204 210 227 243 253 250 245 245 249 250 251 252 255 257 252 246 246 249 250 250 249 250 253 256 259 261 259 254 249 245 245 247 248 248 250 252 252 252 254 255 254 254 252 251 250 250 250 250 249 247 246 243 241 241 241 243 245 247 250 253 254 256 257 258 259 260 261 262 263 264 266 268 270 272 274 275 276 276 276 277
209 214 218 215 211 210 208 209 218 229 243 249 249 248 247 248 248 246 253 259 255 248 247 248 248 248 248 250 254 253 251 252 254 256 255 250 248 250 253 254 254 253 253 254 255 256 256 255 253 251 250 250 250 250 249 249 248 247 245 244 242 243 245 248 251 255 257 258 259 260 260 261 261 262 263 264 265 267 270 272 273 274 275 275 276 277
206 208 212 212 212 212 210 213 225 234 241 250 253 247 242 240 239 229 240 258 260 255 252 250 250 251 251 251 252 249 248 251 257 262 262 257 253 253 254 254 254 254 255 255 256 256 256 256 254 253 251 250 249 248 247 248 248 248 248 247 246 246 246 248 252 256 258 259 260 260 261 261 261 262 262 264 265 267 270 271 273 273 274 274 275 277
201 204 207 210 212 212 210 216 229 238 241 242 243 239 233 224 218 218 230 249 262 269 265 259 257 256 253 251 250 250 254 259 263 265 264 261 258 256 254 255 255 256 257 258 258 258 257 255 253 250 247 244 244 245 246 246 247 248 249 250 250 250 250 250 252 254 255 257 258 260 260 261 261 261 262 263 265 267 269 270 272 272 273 273 275 277
194 198 203 207 209 211 213 218 234 246 244 238 231 220 212 209 219 234 245 257 268 272 272 274 272 266 259 255 254 256 259 260 260 261 260 258 256 255 255 256 256 256 258 258 258 257 255 252 249 245 242 240 241 243 245 246 247 249 250 252 253 253 253 252 252 252 253 255 256 258 259 260 260 261 262 263 265 266 268 269 270 271 272 273 275 277
195 193 196 203 206 208 209 213 232 247 241 232 220 212 220 233 246 255 261 266 268 269 271 275 273 267 257 251 250 249 248 246 248 250 250 250 250 250 251 252 253 255 255 255 255 254 252 250 248 245 243 242 242 244 246 247 249 250 251 253 254 254 254 254 254 253 254 254 255 256 257 258 259 260 261 262 264 265 267 268 269 270 271 273 275 277
201 199 200 204 205 203 202 208 222 234 237 234 230 231 240 253 263 268 269 267 268 268 268 267 266 262 256 252 249 246 246 246 248 251 253 252 250 248 249 249 250 252 253 253 253 251 250 250 249 249 249 248 249 250 251 251 252 253 254 255 256 257 257 257 256 256 255 255 255 254 255 255 257 258 260 261 263 264 265 267 268 270 272 273 275 276
209 211 211 212 211 212 217 224 230 236 241 243 242 244 250 258 260 261 263 265 264 263 262 262 261 259 258 258 256 254 255 256 256 257 256 254 252 251 251 250 250 251 251 252 251 250 248 247 247 248 250 251 251 252 253 254 255 255 256 257 258 259 259 258 257 256 255 254 253 253 254 254 255 257 259 261 262 263 265 266 268 269 271 273 274 275
216 218 218 219 220 221 227 233 236 239 241 243 244 247 251 254 254 255 259 261 259 258 259 260 259 259 261 262 262 262 264 264 263 263 261 260 260 260 258 256 255 254 254 254 254 253 252 250 249 249 250 252 254 255 256 257 257 257 257 258 258 258 258 257 256 254 253 253 253 252 253 254 255 257 258 260 262 263 264 266 267 269 271 272 273 274
218 219 219 221 222 223 228 233 236 238 241 244 246 249 252 257 260 261 263 265 264 263 263 263 263 264 265 266 268 270 270 269 268 268 268 269 269 268 265 261 258 256 256 256 257 257 257 256 255 255 255 256 258 258 259 260 260 259 259 258 257 258 258 257 257 256 255 254 253 253 253 253 254 256 257 259 261 262 264 265 267 268 270 272 273 274
219 218 218 221 223 226 232 236 237 238 241 243 245 247 252 258 261 262 263 264 263 262 262 263 264 266 267 268 270 271 271 271 271 270 271 273 272 270 266 262 258 256 257 261 266 268 267 265 263 262 261 260 260 259 259 259 259 260 259 258 257 257 257 257 257 257 257 256 254 253 252 253 253 255 256 258 260 261 263 265 266 268 270 272 274 275
221 219 218 221 223 227 232 235 235 236 239 241 244 248 252 256 259 260 259 258 258 260 261 262 264 266 268 269 269 269 270 270 268 268 270 271 271 270 268 266 265 266 269 275 279 278 273 270 266 263 261 260 259 259 260 260 261 261 261 260 259 257 257 256 256 257 257 256 255 254 253 253 253 254 256 258 259 262 263 265 267 269 271 273 275 277
223 223 222 221 222 226 231 235 237 239 242 246 250 252 254 256 257 258 258 258 258 259 261 264 266 267 267 267 267 268 268 266 264 264 265 267 268 268 268 271 273 275 279 284 284 280 274 270 264 260 259 259 260 261 261 261 262 261 261 261 260 259 259 258 257 258 258 257 256 255 254 254 254 255 257 259 260 262 264 266 268 271 273 275 277 279
228 230 229 228 229 235 239 242 245 247 250 255 258 258 257 258 258 259 259 259 258 259 261 262 263 264 264 265 264 263 262 261 260 261 262 264 266 266 268 273 276 278 281 285 284 280 273 267 262 259 259 260 261 262 261 260 260 259 260 260 261 261 262 261 261 260 259 257 256 255 254 254 255 256 257 259 261 263 265 267 269 271 273 276 278 279
Height
3123 3124 3123 3120 3119 3121 3125 3129 3133 3138 3143 3147 3149 3151 3152 3152 3152 3154 3157 3159 3160 3160 3159 3161 3161 3162 3163 3165 3166 3166 3166 3167 3168 3169 3170 3171 3172 3172 3173 3175 3176 3177 3179 3180 3180 3181 3182 3183 3184 3184 3185 3187 3188 3189 3190 3191 3192 3194 3195 3196 3198 3199 3200 3201 3201 3202 3203 3203 3204 3204 3205 3205 3205 3205 3205 3205 3205 3205 3205 3205 3205 3204 3204 3204 3203 3203
3121 3119 3117 3119 3123 3126 3130 3133 3136 3139 3143 3147 3149 3150 3151 3151 3151 3154 3156 3157 3158 3158 3158 3160 3160 3159 3161 3163 3164 3164 3164 3165 3166 3167 3168 3169 3170 3171 3172 3173 3174 3176 3177 3177 3177 3179 3180 3181 3182 3183 3183 3184 3186 3188 3189 3190 3191 3193 3193 3195 3196 3197 3198 3199 3200 3201 3201 3202 3202 3202 3203 3203 3203 3203 3204 3204 3204 3204 3204 3203 3203 3202 3202 3202 3202 3201
3116 3114 3115 3121 3126 3129 3131 3133 3135 3139 3143 3146 3147 3148 3148 3149 3150 3152 3154 3155 3156 3155 3156 3158 3156 3156 3159 3161 3161 3161 3162 3164 3165 3165 3166 3168 3169 3170 3171 3172 3173 3174 3175 3175 3176 3177 3178 3179 3180 3181 3182 3183 3185 3186 3187 3188 3189 3190 3191 3193 3194 3194 3196 3197 3198 3199 3200 3200 3200 3200 3200 3201 3201 3202 3202 3202 3202 3202 3202 3201 3201 3200 3200 3200 3200 3199
3111 3112 3116 3121 3125 3128 3130 3132 3134 3137 3141 3142 3144 3145 3145 3147 3150 3150 3151 3153 3153 3154 3155 3156 3155 3154 3156 3157 3157 3158 3160 3161 3162 3163 3164 3165 3166 3167 3169 3170 3171 3172 3173 3173 3175 3176 3176 3177 3178 3179 3181 3182 3183 3184 3185 3187 3187 3188 3190 3191 3192 3193 3194 3195 3196 3197 3198 3198 3198 3198 3198 3198 3199 3200 3200 3201 3201 3200 3200 3199 3199 3198 3198 3198 3197 3197
3109 3111 3115 3119 3123 3127 3129 3130 3132 3135 3137 3138 3140 3141 3142 3145 3148 3148 3151 3152 3152 3152 3153 3155 3154 3150 3151 3152 3152 3156 3158 3158 3159 3160 3161 3162 3163 3164 3165 3166 3168 3169 3170 3171 3172 3173 3174 3175 3176 3177 3179 3180 3181 3182 3184 3185 3186 3187 3188 3189 3190 3191 3191 3192 3193 3194 3195 3195 3195 3196 3196 3196 3197 3198 3198 3199 3198 3197 3197 3197 3197 3196 3196 3196 3195 3195
3109 3110 3114 3117 3121 3124 3126 3126 3129 3131 3134 3135 3135 3137 3141 3144 3146 3148 3150 3150 3150 3149 3149 3153 3151 3144 3145 3148 3149 3153 3154 3154 3156 3157 3158 3160 3161 3162 3163 3164 3166 3167 3168 3169 3170 3171 3171 3173 3174 3175 3176 3177 3178 3180 3182 3183 3184 3185 3186 3187 3188 3188 3189 3190 3191 3191 3192 3192 3193 3193 3194 3194 3195 3196 3196 3196 3195 3194 3194 3194 3194 3194 3194 3194 3193 3193
3107 3109 3113 3116 3119 3122 3123 3124 3126 3129 3132 3131 3130 3136 3141 3143 3144 3146 3147 3148 3147 3145 3147 3150 3148 3142 3142 3144 3146 3150 3151 3151 3153 3153 3154 3157 3158 3159 3160 3162 3164 3165 3166 3167 3168 3169 3169 3170 3171 3172 3174 3175 3176 3178 3180 3180 3181 3182 3183 3184 3185 3186 3187 3188 3188 3189 3189 3190 3190 3191 3191 3192 3192 3193 3193 3193 3192 3192 3192 3192 3192 3192 3192 3191 3191 3190
3104 3107 3111 3113 3117 3119 3119 3119 3121 3125 3129 3126 3128 3137 3141 3142 3143 3144 3145 3146 3145 3145 3147 3146 3146 3144 3139 3139 3144 3146 3146 3147 3148 3149 3151 3154 3155 3156 3158 3160 3161 3162 3164 3165 3166 3167 3168 3168 3170 3171 3172 3173 3175 3176 3176 3177 3178 3179 3181 3182 3183 3184 3184 3185 3186 3186 3187 3187 3188 3188 3189 3189 3189 3190 3190 3190 3189 3189 3190 3190 3190 3190 3189 3189 3188 3188
3103 3105 3107 3110 3114 3114 3113 3115 3119 3124 3126 3125 3131 3138 3140 3141 3143 3143 3144 3144 3144 3146 3143 3141 3143 3142 3134 3133 3141 3142 3141 3143 3143 3146 3149 3151 3153 3154 3155 3157 3158 3160 3161 3162 3163 3164 3165 3166 3167 3168 3170 3171 3172 3172 3173 3174 3175 3176 3177 3179 3180 3181 3182 3182 3183 3183 3184 3184 3185 3185 3186 3186 3187 3187 3187 3187 3187 3187 3188 3188 3188 3188 3187 3186 3186 3186
3103 3105 3106 3108 3110 3109 3110 3115 3120 3123 3124 3127 3135 3138 3139 3141 3141 3142 3143 3143 3145 3143 3137 3136 3139 3137 3130 3129 3136 3137 3136 3138 3141 3144 3147 3148 3150 3151 3152 3154 3155 3157 3158 3159 3161 3162 3163 3163 3164 3165 3166 3167 3169 3170 3171 3171 3172 3173 3174 3175 3176 3178 3179 3180 3180 3181 3181 3182 3182 3182 3183 3183 3184 3184 3184 3184 3185 3185 3185 3185 3185 3185 3185 3184 3184 3183
3100 3103 3104 3104 3105 3107 3111 3116 3120 3122 3125 3130 3135 3137 3139 3140 3140 3142 3141 3142 3144 3137 3130 3132 3135 3135 3130 3124 3129 3131 3132 3136 3140 3142 3144 3146 3147 3148 3150 3151 3152 3154 3155 3156 3157 3159 3160 3161 3161 3162 3163 3164 3165 3167 3168 3169 3170 3171 3172 3173 3174 3175 3176 3176 3177 3178 3178 3178 3179 3179 3180 3180 3181 3181 3181 3181 3182 3182 3183 3183 3183 3182 3182 3182 3181 3181
3098 3099 3099 3099 3101 3105 3109 3114 3118 3121 3124 3129 3132 3134 3138 3139 3140 3141 3140 3142 3140 3130 3126 3130 3132 3134 3126 3119 3124 3129 3131 3136 3138 3139 3142 3143 3144 3145 3146 3148 3149 3150 3151 3152 3154 3155 3157 3158 3158 3159 3160 3161 3162 3164 3165 3166 3167 3168 3169 3170 3171 3172 3173 3173 3174 3174 3175 3175 3176 3176 3177 3178 3178 3178 3178 3179 3179 3180 3180 3180 3179 3179 3179 3179 3179 3178
3096 3096 3097 3098 3100 3102 3106 3111 3116 3119 3123 3126 3128 3131 3136 3138 3140 3140 3138 3137 3133 3125 3124 3127 3130 3128 3118 3116 3123 3126 3129 3133 3134 3136 3139 3140 3141 3142 3143 3144 3145 3146 3147 3149 3150 3152 3153 3154 3155 3156 3157 3158 3159 3161 3162 3163 3164 3165 3166 3167 3168 3169 3169 3170 3171 3171 3172 3172 3173 3174 3174 3175 3175 3175 3176 3176 3176 3176 3176 3176 3176 3176 3176 3176 3176 3176
3096 3097 3096 3096 3097 3099 3102 3105 3108 3111 3116 3120 3122 3124 3128 3131 3135 3135 3133 3131 3127 3123 3123 3126 3128 3122 3113 3115 3120 3122 3127 3130 3131 3134 3135 3136 3138 3139 3140 3141 3141 3142 3143 3145 3146 3148 3149 3150 3152 3153 3154 3155 3156 3157 3158 3159 3160 3161 3162 3163 3164 3165 3166 3166 3167 3168 3169 3169 3170 3171 3171 3172 3172 3173 3173 3173 3173 3173 3173 3173 3173 3173 3173 3173 3174 3174
3093 3094 3092 3092 3094 3095 3097 3101 3103 3107 3112 3116 3119 3123 3124 3123 3126 3128 3128 3126 3123 3123 3124 3126 3125 3117 3111 3114 3116 3119 3125 3127 3128 3131 3132 3134 3135 3135 3137 3138 3138 3139 3140 3141 3143 3144 3145 3147 3148 3149 3150 3151 3152 3153 3154 3155 3156 3157 3158 3159 3160 3162 3162 3163 3164 3164 3165 3166 3167 3168 3168 3169 3169 3169 3170 3170 3170 3170 3170 3170 3170 3170 3171 3171 3172 3172
3089 3089 3088 3090 3093 3094 3096 3100 3105 3109 3113 3116 3120 3122 3120 3119 3122 3124 3124 3123 3122 3123 3122 3122 3118 3112 3111 3113 3114 3117 3120 3123 3126 3128 3129 3131 3132 3132 3134 3134 3136 3137 3137 3139 3139 3141 3142 3143 3144 3145 3147 3148 3149 3150 3151 3152 3153 3154 3155 3156 3157 3158 3159 3160 3160 3161 3162 3162 3163 3164 3165 3165 3165 3166 3166 3166 3167 3167 3167 3167 3167 3168 3168 3169 3170 3170
3086 3088 3088 3091 3094 3096 3097 3100 3104 3108 3111 3115 3117 3115 3114 3117 3122 3123 3122 3121 3122 3121 3117 3116 3113 3111 3112 3113 3112 3115 3117 3119 3123 3124 3126 3128 3128 3129 3131 3132 3133 3134 3135 3136 3136 3137 3138 3139 3140 3142 3143 3144 3145 3146 3147 3148 3149 3150 3151 3152 3153 3154 3155 3156 3156 3157 3158 3159 3160 3160 3161 3161 3162 3162 3163 3163 3163 3164 3164 3165 3165 3166 3167 3167 3168 3168
3084 3087 3089 3091 3094 3096 3099 3102 3105 3107 3109 3112 3112 3111 3115 3120 3122 3121 3120 3120 3121 3119 3114 3111 3110 3110 3111 3111 3110 3113 3115 3117 3119 3121 3123 3124 3125 3127 3128 3129 3130 3130 3131 3132 3133 3134 3135 3136 3137 3138 3139 3140 3141 3142 3143 3144 3145 3146 3147 3148 3149 3150 3151 3152 3152 3153 3154 3155 3156 3157 3157 3158 3158 3158 3159 3159 3160 3161 3161 3162 3163 3164 3165 3165 3166 3166
3083 3087 3089 3090 3093 3096 3098 3102 3104 3105 3108 3110 3110 3112 3116 3118 3116 3116 3117 3117 3117 3116 3112 3109 3109 3108 3107 3108 3109 3111 3113 3115 3118 3119 3120 3121 3122 3124 3125 3126 3127 3127 3128 3129 3130 3131 3132 3133 3133 3134 3135 3136 3137 3138 3139 3140 3141 3142 3143 3144 3145 3146 3147 3147 3148 3149 3150 3151 3152 3153 3153 3154 3154 3155 3156 3156 3157 3158 3159 3160 3161 3162 3163 3163 3164 3164
3083 3086 3088 3090 3093 3096 3097 3099 3099 3101 3104 3107 3110 3112 3112 3113 3113 3113 3113 3112 3112 3112 3110 3108 3107 3104 3103 3106 3109 3110 3112 3114 3115 3116 3118 3119 3120 3121 3121 3122 3123 3124 3125 3126 3127 3128 3128 3129 3129 3130 3131 3132 3133 3134 3135 3136 3137 3138 3139 3140 3141 3142 3142 3143 3144 3145 3146 3147 3148 3149 3149 3150 3151 3152 3153 3154 3155 3156 3157 3158 3159 3160 3161 3161 3161 3162
3083 3084 3087 3089 3092 3094 3094 3093 3094 3097 3101 3102 3105 3107 3108 3109 3110 3110 3110 3108 3108 3108 3108 3107 3104 3101 3101 3105 3107 3108 3110 3112 3112 3113 3115 3116 3117 3117 3118 3118 3119 3120 3121 3122 3123 3124 3124 3125 3126 3127 3127 3128 3129 3130 3131 3132 3133 3134 3136 3137 3137 3138 3139 3140 3141 3142 3142 3143 3144 3145 3146 3147 3148 3149 3150 3151 3153 3154 3155 3156 3157 3158 3159 3159 3159 3159
3081 3082 3085 3087 3089 3089 3090 3092 3095 3098 3100 3100 3101 3102 3104 3106 3108 3109 3107 3105 3105 3105 3104 3104 3101 3099 3101 3103 3105 3107 3108 3109 3109 3110 3111 3112 3113 3114 3114 3114 3115 3116 3117 3118 3119 3120 3121 3122 3122 3123 3124 3124 3126 3127 3128 3129 3130 3131 3132 3133 3134 3134 3135 3136 3137 3138 3139 3140 3141 3142 3143 3144 3145 3147 3148 3149 3151 3152 3153 3154 3155 3156 3156 3157 3157 3157
3079 3081 3083 3085 3086 3088 3091 3093 3095 3097 3099 3100 3101 3101 3103 3104 3105 3105 3103 3102 3103 3102 3102 3102 3100 3098 3100 3102 3103 3104 3105 3106 3107 3108 3109 3110 3110 3110 3111 3112 3112 3113 3114 3115 3116 3117 3118 3118 3119 3120 3120 3121 3122 3123 3124 3125 3126 3127 3128 3129 3130 3131 3132 3133 3134 3135 3136 3137 3138 3139 3140 3142 3143 3145 3146 3148 3149 3150 3151 3152 3153 3153 3154 3154 3154 3154
3077 3079 3081 3084 3086 3088 3091 3093 3095 3096 3097 3097 3095 3097 3100 3100 3101 3102 3101 3102 3102 3100 3100 3102 3098 3097 3100 3102 3102 3103 3104 3104 3105 3105 3106 3107 3107 3108 3109 3109 3110 3111 3112 3112 3113 3114 3115 3115 3116 3117 3117 3118 3119 3120 3121 3122 3123 3124 3124 3125 3126 3127 3129 3130 3131 3132 3133 3134 3135 3137 3138 3140 3141 3143 3144 3146 3147 3148 3149 3149 3150 3151 3151 3151 3151 3151
3071 3074 3077 3081 3087 3090 3092 3092 3090 3090 3090 3089 3090 3093 3095 3096 3099 3101 3101 3102 3100 3097 3098 3098 3093 3093 3098 3101 3102 3103 3103 3103 3103 3103 3104 3105 3105 3106 3106 3107 3108 3108 3109 3110 3110 3111 3112 3113 3113 3114 3115 3115 3116 3117 3118 3118 3119 3120 3121 3122 3124 3125 3126 3127 3128 3129 3131 3132 3133 3135 3137 3138 3140 3141 3142 3144 3145 3145 3146 3147 3148 3148 3148 3148 3148 3148
3067 3069 3070 3073 3077 3080 3080 3078 3075 3078 3082 3085 3088 3090 3092 3095 3097 3098 3099 3099 3096 3094 3094 3092 3089 3091 3096 3099 3100 3102 3102 3101 3101 3101 3102 3103 3103 3104 3104 3105 3105 3106 3106 3107 3108 3109 3110 3110 3111 3111 3112 3113 3113 3114 3115 3115 3116 3117 3119 3120 3121 3123 3124 3125 3126 3127 3129 3131 3132 3134 3136 3137 3138 3139 3140 3141 3142 3143 3144 3144 3145 3145 3145 3145 3145 3145
3065 3065 3064 3064 3065 3066 3068 3069 3071 3077 3082 3084 3085 3088 3091 3093 3094 3096 3097 3094 3092 3092 3091 3089 3089 3092 3094 3096 3098 3099 3099 3099 3099 3100 3100 3101 3102 3102 3103 3103 3104 3104 3104 3105 3106 3107 3107 3108 3109 3109 3110 3110 3111 3111 3112 3113 3114 3115 3117 3118 3120 3121 3122 3123 3125 3126 3128 3130 3131 3133 3134 3135 3136 3137 3138 3139 3140 3140 3141 3142 3142 3142 3142 3142 3142 3141
3061 3061 3060 3062 3065 3066 3069 3072 3074 3078 3080 3081 3083 3086 3087 3089 3091 3093 3090 3087 3090 3090 3085 3085 3089 3090 3091 3094 3097 3097 3098 3098 3098 3099 3099 3100 3100 3101 3101 3102 3102 3102 3103 3103 3104 3105 3105 3106 3107 3107 3107 3108 3109 3109 3110 3111 3112 3114 3115 3117 3118 3119 3121 3122 3124 3125 3127 3129 3130 3131 3132 3133 3134 3135 3136 3137 3137 3138 3138 3139 3139 3139 3139 3138 3138 3137
3057 3056 3057 3062 3065 3067 3070 3073 3074 3076 3078 3080 3081 3083 3084 3086 3087 3085 3082 3082 3086 3083 3078 3082 3087 3085 3087 3093 3095 3096 3097 3097 3097 3097 3097 3098 3098 3099 3100 3100 3101 3101 3101 3102 3102 3103 3103 3104 3104 3105 3105 3106 3107 3108 3109 3110 3111 3112 3113 3115 3116 3118 3119 3121 3122 3124 3126 3127 3128 3129 3130 3131 3132 3133 3134 3134 3135 3135 3135 3135 3135 3135 3135 3135 3134 3134
3054 3054 3057 3061 3064 3066 3070 3072 3073 3075 3077 3077 3078 3079 3081 3082 3081 3080 3078 3079 3082 3078 3076 3083 3084 3080 3084 3091 3093 3093 3094 3094 3094 3095 3095 3096 3096 3097 3098 3098 3099 3099 3100 3100 3101 3101 3101 3102 3102 3103 3103 3104 3105 3106 3107 3108 3110 3111 3112 3113 3114 3116 3117 3119 3120 3122 3123 3125 3126 3127 3128 3129 3130 3130 3131 3131 3131 3131 3132 3132 3132 3131 3131 3131 3130 3130
3051 3054 3057 3060 3064 3066 3067 3069 3072 3073 3073 3074 3075 3074 3074 3075 3075 3074 3074 3078 3079 3076 3077 3083 3080 3074 3080 3088 3089 3090 3090 3090 3091 3093 3093 3094 3094 3095 3095 3096 3097 3097 3098 3098 3099 3099 3099 3100 3100 3101 3101 3102 3103 3104 3105 3106 3108 3109 3110 3111 3112 3114 3115 3117 3118 3119 3121 3122 3123 3124 3125 3126 3127 3127 3128 3128 3128 3128 3128 3128 3128 3128 3127 3127 3127 3126
3050 3054 3056 3060 3063 3063 3064 3069 3070 3070 3073 3072 3067 3065 3066 3067 3068 3069 3072 3075 3074 3073 3076 3078 3071 3067 3077 3085 3087 3086 3087 3087 3089 3090 3091 3091 3092 3092 3093 3093 3094 3095 3096 3096 3096 3097 3097 3097 3098 3099 3099 3100 3101 3101 3103 3104 3105 3107 3108 3109 3111 3112 3113 3114 3115 3117 3118 3119 3120 3121 3122 3123 3124 3124 3125 3125 3125 3125 3125 3124 3124 3124 3124 3123 3122 3122
3049 3052 3054 3058 3060 3060 3064 3067 3067 3070 3073 3062 3052 3055 3062 3064 3065 3067 3068 3068 3069 3071 3072 3069 3063 3067 3079 3084 3083 3082 3083 3084 3086 3087 3088 3088 3089 3090 3090 3090 3091 3092 3093 3093 3093 3094 3095 3095 3096 3096 3097 3098 3098 3099 3100 3102 3103 3105 3106 3108 3108 3109 3110 3111 3112 3113 3115 3116 3117 3118 3119 3120 3120 3121 3121 3121 3121 3121 3121 3121 3120 3120 3120 3119 3118 3118
3045 3049 3053 3056 3057 3059 3061 3063 3066 3071 3064 3047 3042 3052 3060 3061 3062 3062 3061 3063 3066 3067 3066 3063 3064 3071 3077 3078 3078 3078 3080 3082 3083 3084 3084 3085 3085 3085 3086 3086 3088 3089 3090 3090 3090 3091 3092 3093 3094 3094 3094 3095 3095 3096 3097 3098 3100 3102 3103 3104 3105 3106 3107 3108 3109 3110 3111 3112 3113 3114 3115 3116 3117 3117 3117 3117 3117 3117 3117 3116 3116 3116 3116 3115 3114 3114
3039 3045 3049 3052 3055 3056 3057 3061 3066 3062 3048 3039 3043 3052 3056 3058 3059 3059 3058 3061 3063 3063 3062 3062 3064 3068 3071 3073 3075 3075 3076 3078 3079 3079 3080 3080 3080 3082 3083 3084 3085 3086 3086 3087 3088 3089 3090 3091 3091 3091 3092 3092 3093 3093 3094 3095 3097 3098 3099 3100 3101 3102 3103 3104 3105 3106 3107 3108 3109 3110 3111 3112 3112 3113 3113 3112 3112 3112 3112 3112 3112 3112 3112 3111 3110 3110
3035 3040 3044 3048 3051 3052 3054 3056 3055 3046 3040 3041 3044 3046 3050 3053 3054 3055 3055 3055 3057 3059 3058 3058 3060 3064 3068 3070 3071 3071 3072 3073 3074 3075 3076 3077 3077 3079 3080 3081 3082 3083 3083 3085 3086 3087 3088 3088 3088 3089 3089 3090 3090 3091 3091 3092 3093 3094 3095 3096 3097 3098 3099 3100 3101 3102 3103 3104 3106 3106 3107 3108 3108 3108 3108 3108 3108 3108 3108 3108 3108 3107 3107 3107 3106 3105
3032 3036 3041 3045 3047 3048 3050 3049 3046 3043 3040 3038 3038 3040 3044 3048 3050 3053 3052 3049 3051 3055 3053 3053 3057 3061 3063 3065 3066 3068 3068 3068 3069 3071 3072 3074 3075 3076 3077 3078 3079 3080 3081 3082 3083 3083 3084 3085 3085 3085 3085 3086 3087 3087 3088 3089 3090 3091 3091 3092 3093 3094 3095 3096 3097 3098 3099 3100 3101 3102 3103 3103 3103 3103 3103 3103 3103 3103 3103 3103 3103 3103 3103 3102 3102 3101
3030 3033 3037 3042 3044 3046 3048 3048 3049 3046 3035 3028 3032 3037 3042 3046 3050 3053 3050 3043 3044 3049 3050 3051 3055 3057 3059 3062 3063 3064 3065 3064 3063 3064 3068 3072 3072 3073 3074 3075 3076 3077 3077 3078 3079 3079 3080 3080 3081 3081 3082 3082 3083 3084 3085 3085 3086 3087 3087 3088 3089 3089 3090 3091 3092 3094 3095 3096 3097 3098 3098 3099 3099 3099 3099 3099 3099 3099 3099 3099 3099 3098 3098 3098 3097 3096
3029 3032 3036 3040 3041 3042 3044 3043 3042 3036 3025 3023 3031 3037 3041 3044 3047 3052 3047 3035 3034 3044 3048 3048 3050 3053 3056 3058 3059 3061 3061 3058 3056 3059 3066 3070 3070 3070 3070 3071 3072 3072 3073 3074 3074 3075 3076 3076 3077 3077 3077 3078 3079 3080 3080 3081 3081 3082 3082 3083 3083 3084 3085 3086 3088 3089 3091 3092 3093 3093 3093 3094 3094 3094 3094 3094 3094 3094 3094 3094 3094 3094 3093 3093 3092 3091
3025 3028 3032 3034 3033 3034 3037 3037 3033 3028 3023 3025 3030 3034 3039 3042 3045 3050 3042 3027 3028 3041 3044 3044 3047 3049 3051 3054 3055 3055 3053 3051 3052 3057 3062 3065 3065 3065 3065 3066 3067 3067 3068 3069 3070 3070 3071 3072 3072 3073 3073 3074 3075 3075 3076 3076 3076 3077 3077 3077 3078 3078 3080 3082 3083 3085 3086 3087 3087 3088 3088 3089 3089 3089 3090 3090 3090 3090 3090 3089 3089 3089 3088 3088 3087 3086
3020 3023 3026 3028 3028 3030 3033 3032 3027 3023 3022 3026 3029 3031 3036 3041 3042 3040 3030 3023 3030 3039 3040 3041 3045 3045 3046 3049 3049 3048 3048 3050 3052 3054 3057 3059 3060 3059 3059 3060 3062 3062 3063 3064 3065 3066 3067 3067 3068 3068 3069 3069 3070 3070 3071 3071 3071 3071 3072 3072 3073 3074 3076 3077 3079 3080 3080 3081 3082 3083 3083 3084 3084 3084 3085 3085 3085 3085 3085 3085 3084 3084 3083 3082 3082 3081
3012 3017 3020 3022 3025 3027 3027 3028 3027 3020 3017 3022 3027 3029 3033 3036 3033 3027 3024 3028 3034 3036 3036 3039 3041 3041 3043 3044 3043 3045 3047 3048 3049 3050 3052 3053 3053 3053 3054 3055 3056 3057 3058 3059 3059 3060 3061 3061 3062 3063 3063 3064 3065 3065 3066 3066 3066 3067 3067 3068 3069 3071 3072 3073 3073 3074 3075 3075 3076 3077 3078 3079 3079 3079 3080 3080 3080 3080 3080 3080 3079 3078 3078 3078 3077 3077
3004 3009 3013 3015 3018 3021 3024 3027 3024 3013 3007 3016 3024 3026 3027 3026 3024 3024 3028 3031 3032 3033 3035 3037 3037 3038 3040 3040 3041 3043 3044 3044 3045 3046 3047 3048 3048 3049 3049 3050 3051 3052 3053 3054 3054 3055 3056 3056 3057 3058 3058 3059 3060 3060 3061 3061 3062 3063 3063 3064 3066 3067 3067 3068 3068 3069 3069 3070 3071 3071 3072 3073 3074 3074 3075 3075 3075 3075 3075 3075 3074 3074 3073 3073 3072 3072
3000 3003 3004 3006 3009 3013 3014 3014 3009 3002 3002 3012 3019 3019 3020 3021 3023 3026 3029 3029 3030 3032 3033 3034 3035 3036 3037 3038 3039 3040 3040 3042 3043 3043 3044 3045 3046 3046 3047 3047 3048 3048 3049 3050 3050 3051 3052 3053 3053 3054 3055 3055 3056 3057 3057 3057 3058 3059 3059 3060 3061 3062 3062 3063 3063 3064 3064 3065 3065 3066 3067 3068 3068 3069 3070 3070 3070 3070 3070 3070 3070 3069 3069 3068 3067 3067
2993 2995 2997 2999 3003 3006 3005 3004 3003 3003 3005 3010 3013 3015 3018 3021 3024 3025 3026 3027 3028 3029 3030 3031 3033 3033 3034 3035 3036 3036 3038 3039 3039 3040 3041 3042 3043 3044 3044 3044 3045 3046 3046 3047 3047 3047 3048 3049 3049 3050 3051 3051 3052 3053 3053 3053 3054 3054 3055 3056 3057 3057 3057 3058 3058 3059 3059 3060 3061 3061 3062 3063 3063 3064 3064 3065 3065 3065 3065 3065 3065 3064 3064 3063 3062 3061
2990 2994 2997 3000 3002 3004 3003 3003 3004 3004 3004 3006 3010 3014 3017 3019 3021 3023 3024 3025 3026 3026 3027 3028 3029 3030 3031 3032 3032 3034 3035 3035 3036 3037 3038 3039 3040 3040 3041 3042 3043 3043 3043 3044 3044 3044 3045 3045 3046 3046 3047 3047 3048 3048 3049 3049 3049 3050 3051 3051 3051 3052 3052 3052 3053 3053 3054 3055 3055 3056 3057 3057 3058 3059 3059 3060 3060 3060 3060 3060 3060 3059 3059 3058 3057 3056
2989 2993 2996 2998 3001 3001 2998 2997 3000 3002 3003 3005 3008 3011 3014 3016 3019 3021 3022 3023 3023 3024 3025 3025 3026 3027 3028 3029 3030 3031 3031 3032 3033 3034 3034 3035 3036 3037 3037 3039 3039 3040 3041 3041 3041 3042 3042 3042 3042 3043 3043 3044 3044 3044 3044 3045 3045 3045 3046 3046 3047 3047 3047 3048 3048 3048 3049 3050 3050 3051 3051 3052 3053 3054 3054 3055 3055 3055 3055 3055 3055 3054 3053 3053 3052 3051
2985 2989 2992 2993 2995 2995 2993 2994 2997 3000 3001 3003 3005 3007 3010 3014 3015 3017 3019 3020 3020 3021 3022 3022 3023 3024 3024 3025 3027 3027 3028 3029 3030 3030 3031 3032 3033 3033 3034 3035 3035 3036 3037 3037 3038 3038 3038 3038 3038 3038 3039 3039 3039 3039 3040 3040 3040 3040 3041 3041 3042 3042 3042 3043 3043 3043 3044 3045 3045 3046 3046 3047 3048 3049 3049 3050 3050 3050 3050 3050 3049 3049 3048 3048 3047 3047
2982 2984 2986 2987 2989 2989 2988 2989 2993 2996 2998 3001 3003 3005 3007 3010 3012 3014 3015 3016 3017 3017 3018 3019 3020 3020 3021 3022 3023 3023 3025 3026 3026 3027 3028 3028 3029 3030 3031 3031 3032 3032 3033 3033 3033 3033 3033 3034 3034 3034 3034 3034 3034 3034 3035 3035 3035 3036 3036 3036 3037 3037 3037 3038 3038 3039 3039 3040 3040 3041 3041 3042 3043 3044 3045 3045 3045 3045 3045 3044 3044 3043 3043 3043 3043 3042
2977 2978 2980 2983 2983 2982 2982 2985 2989 2994 2996 2998 3000 3002 3004 3006 3008 3009 3010 3012 3013 3014 3015 3015 3016 3017 3018 3019 3020 3021 3022 3022 3023 3024 3024 3025 3026 3026 3026 3027 3028 3028 3028 3028 3028 3028 3029 3029 3029 3029 3030 3030 3030 3030 3030 3030 3031 3031 3032 3032 3032 3033 3033 3033 3034 3034 3035 3035 3035 3036 3036 3037 3038 3039 3040 3040 3040 3040 3040 3039 3039 3039 3038 3038 3038 3037
2972 2973 2976 2978 2978 2979 2982 2986 2990 2992 2994 2996 2998 3000 3001 3002 3004 3005 3007 3008 3009 3010 3011 3012 3013 3014 3014 3015 3016 3017 3018 3019 3020 3020 3020 3021 3021 3022 3022 3023 3023 3023 3024 3024 3024 3024 3024 3025 3025 3025 3026 3026 3026 3026 3026 3026 3027 3027 3027 3028 3028 3028 3029 3029 3029 3030 3030 3030 3031 3031 3032 3033 3033 3034 3035 3035 3035 3035 3035 3034 3034 3034 3034 3033 3033 3032